sat.trackr.live / text

‹ back to catalog

STARLINK-33765

NORAD 63473 · 2025-070P

PAYLOAD ACTIVE UNKNOWN

§ Identity

Operator
Country
US
Launch date
2025-04-06
Launch site
AFETR
Launch vehicle
Mass (kg)
RCS (m²)

Purposes: comms

External: N2YO · Heavens-Above · Gunter

§ Orbital elements

Epoch: 2026-05-25T04:21:58.256928Z

Period
94.27 min
Inclination
43.0012°
Eccentricity
0.0001408
Mean motion
15.27589276 rev/d
Perigee alt
482.1 km
Apogee alt
484.0 km
Semi-major
6,861.2 km
B*
4.3079e-4
RAAN
187.9225°
Arg perigee
252.0522°
Mean anomaly
108.0176°
Rev number
6,467

§ Raw data

STARLINK-337651 63473U 25070P   26145.18192427  .00011614  00000+0  43079-3 0  99972 63473  43.0012 187.9225 0001408 252.0522 108.0176 15.27589276 64678

JSON: /api/v1/satellites/63473 · /tle

For live sub-satellite position, see the globe view (requires WebGL).

§ Visibility from observer

Set your observer location to see the next 7 days of passes ≥ 10°. The values pass through the URL so the page stays shareable.

No JS? Fill the form by hand. The geolocation button needs JavaScript.